TimeEDT,TemperatureF,Dew PointF,Humidity,Sea Level PressureIn,VisibilityMPH,Wind Direction,Wind SpeedMPH,Gust SpeedMPH,PrecipitationIn,Events,Conditions,WindDirDegrees,DateUTC
1:53 AM,61.0,53.1,75,30.13,10.0,SSE,6.9,-,N/A,,Clear,160,2013-08-16 05:53:00
2:53 AM,60.1,53.1,78,30.12,10.0,SSE,6.9,-,N/A,,Clear,160,2013-08-16 06:53:00
3:53 AM,59.0,52.0,78,30.13,10.0,SSE,8.1,-,N/A,,Clear,150,2013-08-16 07:53:00
4:53 AM,57.9,52.0,81,30.14,10.0,SSE,8.1,-,N/A,,Clear,150,2013-08-16 08:53:00
5:53 AM,57.9,52.0,81,30.14,10.0,SSE,8.1,-,N/A,,Clear,150,2013-08-16 09:53:00
6:53 AM,57.9,52.0,81,30.15,10.0,SSE,8.1,-,N/A,,Clear,150,2013-08-16 10:53:00
7:53 AM,60.1,53.1,78,30.15,10.0,SSE,6.9,-,N/A,,Clear,150,2013-08-16 11:53:00
8:26 AM,62.6,53.6,72,30.16,2.5,SSE,6.9,-,N/A,,Haze,150,2013-08-16 12:26:00
8:45 AM,62.6,53.6,72,30.17,8.0,SSE,6.9,-,N/A,,Clear,160,2013-08-16 12:45:00
8:53 AM,64.0,53.1,67,30.17,3.0,SSE,6.9,-,N/A,,Haze,160,2013-08-16 12:53:00
9:53 AM,69.1,53.1,57,30.17,4.0,SSE,3.5,-,N/A,,Haze,150,2013-08-16 13:53:00
10:17 AM,71.6,51.8,50,30.18,1.8,Variable,3.5,-,N/A,,Haze,0,2013-08-16 14:17:00
10:33 AM,71.6,53.6,53,30.18,3.0,Variable,3.5,-,N/A,,Haze,0,2013-08-16 14:33:00
10:38 AM,71.6,53.6,53,30.18,1.8,NW,3.5,-,N/A,,Haze,310,2013-08-16 14:38:00
10:48 AM,73.4,53.6,50,30.18,3.0,WNW,3.5,-,N/A,,Haze,290,2013-08-16 14:48:00
10:53 AM,71.1,52.0,51,30.18,1.8,NW,4.6,-,N/A,,Haze,310,2013-08-16 14:53:00
11:02 AM,71.6,53.6,53,30.18,3.0,Variable,3.5,-,N/A,,Haze,0,2013-08-16 15:02:00
11:53 AM,72.0,54.0,53,30.18,4.0,NW,4.6,-,N/A,,Haze,320,2013-08-16 15:53:00
12:53 PM,73.9,57.9,57,30.18,10.0,NNW,6.9,-,N/A,,Partly Cloudy,330,2013-08-16 16:53:00
1:53 PM,73.9,57.0,55,30.18,10.0,NNW,6.9,-,N/A,,Mostly Cloudy,340,2013-08-16 17:53:00
2:53 PM,75.0,55.0,50,30.18,10.0,North,6.9,-,N/A,,Overcast,360,2013-08-16 18:53:00
3:53 PM,75.9,57.0,52,30.17,10.0,North,9.2,-,N/A,,Scattered Clouds,10,2013-08-16 19:53:00
4:53 PM,71.1,55.9,59,30.17,10.0,NNE,10.4,-,N/A,,Mostly Cloudy,20,2013-08-16 20:53:00
5:53 PM,71.1,55.0,57,30.17,10.0,NE,8.1,-,N/A,,Mostly Cloudy,40,2013-08-16 21:53:00
6:53 PM,72.0,57.0,59,30.17,10.0,NE,6.9,-,N/A,,Mostly Cloudy,40,2013-08-16 22:53:00
7:53 PM,68.0,57.0,68,30.18,10.0,NNE,6.9,-,N/A,,Partly Cloudy,30,2013-08-16 23:53:00
8:53 PM,64.9,57.9,78,30.18,10.0,NE,5.8,-,N/A,,Clear,40,2013-08-17 00:53:00
9:53 PM,66.9,57.0,70,30.19,10.0,East,4.6,-,N/A,,Clear,90,2013-08-17 01:53:00
10:53 PM,64.0,55.9,75,30.19,10.0,ENE,3.5,-,N/A,,Clear,60,2013-08-17 02:53:00
11:53 PM,64.9,55.9,73,30.19,10.0,East,4.6,-,N/A,,Clear,90,2013-08-17 03:53:00